Regional Weather Roundup
Issued by NWS

Home | Current Version | Previous Version | Text Only | Print | Product List | Glossary Off
Versions: 1 2 3 4 5 6 7 8 9 10 11 12 13 14 15 16 17 18 19 20 21 22 23 24 25 26 27 28 29 30 31 32 33 34 35 36 37 38 39 40 41 42 43 44 45 46 47 48 49 50

000
ASUS43 KLSX 232007
RWRMO

WEATHER SUMMARY FOR MISSOURI
NATIONAL WEATHER SERVICE SPRINGFIELD MO
300 PM CDT SAT MAY 23 2015

NOTE: "FAIR" INDICATES FEW OR NO CLOUDS BELOW 12,000 FEET WITH NO
       SIGNIFICANT WEATHER AND/OR OBSTRUCTIONS TO VISIBILITY.
       CURRENT SKY AND/OR WEATHER CONDITIONS ARE NOT AVAILABLE FOR
       CHILLICOTHE AND FARMINGTON.

MOZ001>031-035>038-043-044-053-054-232100-
...NORTHERN AND WESTERN MISSOURI...

CITY           SKY/WX    TMP DP  RH WIND       PRES   REMARKS
KANSAS CTY INT CLOUDY    67  59  75 SE12      30.15F
KANSAS C DTWN  CLOUDY    68  58  70 SE7       30.14F
LEE`S SUMMIT   CLOUDY    66  59  78 SE10      30.16F
ST JOSEPH      CLOUDY    67  58  72 SE12      30.14F
CHILLICOTHE      N/A     71  57  61 S9G17     30.19F
KIRKSVILLE     CLOUDY    71  54  54 SE15      30.22F

$$
MOZ066>068-077>081-088>096-101>105-232100-
...SOUTHWEST MISSOURI...

CITY           SKY/WX    TMP DP  RH WIND       PRES   REMARKS
SPRINGFIELD    CLOUDY    71  59  65 SE15      30.17F
JOPLIN         CLOUDY    72  64  76 SE8       30.12F

$$
MOZ032>034-039>042-045>050-055>058-069>072-232100-
...CENTRAL MISSOURI...

CITY           SKY/WX    TMP DP  RH WIND       PRES   REMARKS
COLUMBIA       CLOUDY    71  55  56 SE10      30.22F
JEFFERSON CITY CLOUDY    73  53  49 SE9       30.21F
ROLLA          CLOUDY    67  54  63 S12       30.23F
SEDALIA        CLOUDY    70  58  65 SE12      30.20F
WHITEMAN AFB   CLOUDY    69  59  69 SE8       30.17F
WARRENSBURG    CLOUDY    68  57  68 SE14      30.16F
OSAGE BEACH    CLOUDY    66  55  68 SE9       30.22F

$$
MOZ051-052-059>065-232100-
...EAST CENTRAL MISSOURI...

CITY           SKY/WX    TMP DP  RH WIND       PRES   REMARKS
ST LOUIS INTL  PTSUNNY   78  50  37 SE10G18   30.24F
SPIRIT OF STL  PTSUNNY  N/A N/A N/A S7        30.23F
ST CHARLES     MOSUNNY   79  50  36 SE13      30.23F

$$
MOZ072>076-082>087-097>100-106>115-232100-
...SOUTH CENTRAL AND SOUTHEAST MISSOURI...

CITY           SKY/WX    TMP DP  RH WIND       PRES   REMARKS
CAPE GIRARDEAU MOSUNNY   77  49  37 CALM      30.26F
FARMINGTON     MOSUNNY   75  50  41 S10       30.30F
POPLAR BLUFF   PTSUNNY   75  50  41 SE6       30.24F
WEST PLAINS    CLOUDY    68  54  60 VRB7      30.25F

$$


USA.gov is the U.S. government's official web portal to all federal, state and local government web resources and services.